Погода в Эдеа

Камерун     3°47′54″N   10°07′47″E
темп.,
°C
ветер,
м/с
пор.,
м/с
влажн.,
%
обл.,
%
осадки,
мм/ч
давл.,
гПа
погр.,
м
11 апреля, вс
вс1101:00+24ссв0198100 7.1 100926
04:00+24сз119788 1.8 100724
07:00+24з1396100 3.3 1009138
10:00+26зюз2480100 0.0 1011535
13:00+27зюз2274100 0.1 1010876
16:00+26ю2484100 0.8 1008369
19:00+24ю0195100 0.9 100926
22:00+24всв129690 0.1 101258
12 апреля, пн
пн1201:00+23всв1498100 1.6 1011124
04:00+22всв289498 0.0 1010241
07:00+23в1893100 0.0 1011265
10:00+24всв2783100 0.0 1013390
13:00+25сз1381100 0.0 1011154
16:00+28ююз116827 0.0 1008422
19:00+24вюв00845 0.0 100911
22:00+23з018811 0.0 101111
13 апреля, вт
вт1301:00+22св0091100 0.0 101211
04:00+22в119381 0.0 101112
07:00+23всв1289100 0.1 101265
10:00+30ююв115970 0.0 1013783
13:00+35ююв114379 0.0 10101746
16:00+34зюз224670 0.0 10071369
19:00+26юз248865 0.9 1009111
22:00+24з1696100 4.5 1012151
14 апреля, ср
ср1401:00+23ссз0096100 7.3 101218
04:00+23вюв0297100 4.5 1012104
07:00+22юв1398100 6.4 1013190
10:00+22юв3797100 1.8 1014295
13:00+23в1291100 2.2 1012303
16:00+24всв1288100 0.1 1009403
19:00+23всв1194100 0.1 101012
22:00+22с1195100 0.0 101212
15 апреля, чт
чт1501:00+23в149192 0.0 1011125
04:00+22св1591100 0.1 1010161
07:00+22всв2992100 0.6 1011267
10:00+23всв2887100 0.0 1011297
13:00+34в234281 0.0 10081372
16:00+34юв124113 0.0 10061306
19:00+26юз257829 0.0 1008140
22:00+24юз11905 0.0 101016